User: anonymous   Login
Location: Unspecified
(0.0000°N, 0.0000°E)
Time: 02:42:57
(UTC+00:00)
Language:

GALILEO-FM3 - Orbit

View from above orbital plane
View from above orbital plane
View from above satellite
View from above satellite

Ground track
Ground track

The orbit data is extracted from the following two-line orbital elements,

1 38857U 12055A   19054.75540560 -.00000001  00000-0  00000+0 0  9996
2 38857  54.9238 174.9969 0002576 247.7024 112.2423  1.70473590 39637
Epoch (UTC): 23 February 2019 18:07:47
Eccentricity: 0.0002576
inclination: 54.9238°
perigee height: 23214 km
apogee height: 23229 km
right ascension of ascending node: 174.9969°
argument of perigee: 247.7024°
revolutions per day: 1.70473590
mean anomaly at epoch: 112.2423°
orbit number at epoch: 3963

The dashed part of the orbit path shows where the satellite is in the earth's shadow,  

DLR